Weather in Sassari

Italy     40°43′14″N   8°33′50″E
temp.,
°C
wind,
m/s
gust,
m/s
humid.,
%
clouds,
%
prec.,
mm/h
press.,
hPa
HPBL,
m
16 may, mon
mon1623:00+17ese22611 0.0 101913
02:00+16sse22615 0.0 101915
05:00+16s22675 0.0 102023
08:00+20se11545 0.0 1020110
11:00+25n2240100 0.0 1020662
14:00+26n4237100 0.0 1020723
17:00+24n44441 0.0 1020510
20:00+20nne11610 0.0 102013
17 may, tue
tue1723:00+17sse11655 0.0 102111
02:00+17sse226190 0.0 102015
05:00+16sse2266100 0.0 102020
08:00+20ese1154100 0.0 102084
11:00+26n2134100 0.0 1019662
14:00+26nnw433618 0.0 1019870
17:00+25n334010 0.0 1018656
20:00+20n22585 0.0 101827
18 may, wed
wed1823:00+17ese116340 0.0 101911
02:00+16ese115825 0.0 101811
05:00+16ese11575 0.0 101811
08:00+20e12475 0.0 1019117
11:00+25n43384 0.0 1019659
14:00+26n54390 0.0 1019634
17:00+25n56461 0.0 1018385
20:00+20nnw24702 0.0 1019136
19 may, thu
thu1923:00+17s22804 0.0 102021
02:00+17sse22725 0.0 102122
05:00+17se226810 0.0 102114
08:00+21sse115449 0.0 1022111
11:00+26nw324015 0.0 1023949
14:00+27nnw43419 0.0 10231015
17:00+25nnw33455 0.0 1022605
20:00+21nnw12640 0.0 102330
20 may, fri
fri2023:00+18s22690 0.0 102422
02:00+18sse22675 0.0 102418
05:00+18se22645 0.0 102512
08:00+22se11515 0.0 1025115
11:00+27nnw32382 0.0 1026994
14:00+27nnw43394 0.0 10251041
17:00+26n44435 0.0 1024669
20:00+22n11595 0.0 102419